Time,TemperatureF,DewpointF,PressureIn,WindDirection,WindDirectionDegrees,WindSpeedMPH,WindSpeedGustMPH,Humidity,HourlyPrecipIn,Conditions,Clouds,dailyrainin,SoftwareType,DateUTC
2013-05-04 00:00:00,58.6,27.4,29.91,North,0,0.0,0.0,30,0.00,,,0.00,WUHU21623XXSP,2013-05-04 07:00:00,
2013-05-04 00:05:00,58.3,27.7,29.91,North,0,0.0,0.0,31,0.00,,,0.00,WUHU21623XXSP,2013-05-04 07:05:00,
2013-05-04 00:10:00,58.1,27.6,29.91,North,0,0.0,0.0,31,0.00,,,0.00,WUHU21623XXSP,2013-05-04 07:10:00,
2013-05-04 00:15:00,58.3,27.7,29.91,North,0,0.0,0.0,31,0.00,,,0.00,WUHU21623XXSP,2013-05-04 07:15:00,
2013-05-04 00:20:00,58.1,27.6,29.91,North,0,0.0,0.0,31,0.00,,,0.00,WUHU21623XXSP,2013-05-04 07:20:00,
2013-05-04 00:25:00,57.9,27.4,29.91,North,0,0.0,0.0,31,0.00,,,0.00,WUHU21623XXSP,2013-05-04 07:25:00,
2013-05-04 00:30:00,57.6,27.1,29.91,North,0,0.0,0.0,31,0.00,,,0.00,WUHU21623XXSP,2013-05-04 07:30:00,
2013-05-04 00:35:00,57.0,27.3,29.91,North,0,0.0,0.0,32,0.00,,,0.00,WUHU21623XXSP,2013-05-04 07:35:00,
2013-05-04 00:40:00,56.7,27.0,29.91,North,0,0.0,0.0,32,0.00,,,0.00,WUHU21623XXSP,2013-05-04 07:40:00,
2013-05-04 00:45:00,56.1,26.5,29.90,North,0,0.0,0.0,32,0.00,,,0.00,WUHU21623XXSP,2013-05-04 07:45:00,
2013-05-04 00:50:00,55.9,26.3,29.90,North,0,0.0,0.0,32,0.00,,,0.00,WUHU21623XXSP,2013-05-04 07:50:00,
2013-05-04 00:55:00,55.9,26.3,29.90,North,0,0.0,0.0,32,0.00,,,0.00,WUHU21623XXSP,2013-05-04 07:55:00,
2013-05-04 01:00:00,55.9,26.3,29.90,North,0,0.0,0.0,32,0.00,,,0.00,WUHU21623XXSP,2013-05-04 08:00:00,
2013-05-04 01:05:00,55.8,26.2,29.90,North,0,0.0,0.0,32,0.00,,,0.00,WUHU21623XXSP,2013-05-04 08:05:00,
2013-05-04 01:10:00,55.6,26.0,29.89,North,0,0.0,0.0,32,0.00,,,0.00,WUHU21623XXSP,2013-05-04 08:10:00,
2013-05-04 01:15:00,55.2,25.7,29.89,North,0,0.0,0.0,32,0.00,,,0.00,WUHU21623XXSP,2013-05-04 08:15:00,
2013-05-04 01:20:00,54.9,26.1,29.89,North,0,0.0,0.0,33,0.00,,,0.00,WUHU21623XXSP,2013-05-04 08:20:00,
2013-05-04 01:25:00,54.3,26.3,29.89,North,0,0.0,0.0,34,0.00,,,0.00,WUHU21623XXSP,2013-05-04 08:25:00,
2013-05-04 01:30:00,54.1,26.2,29.89,North,0,0.0,0.0,34,0.00,,,0.00,WUHU21623XXSP,2013-05-04 08:30:00,
2013-05-04 01:35:00,54.1,26.2,29.89,North,0,0.0,0.0,34,0.00,,,0.00,WUHU21623XXSP,2013-05-04 08:35:00,
2013-05-04 01:40:00,54.0,26.0,29.89,North,0,0.0,0.0,34,0.00,,,0.00,WUHU21623XXSP,2013-05-04 08:40:00,
2013-05-04 01:45:00,54.1,26.2,29.89,North,0,0.0,0.0,34,0.00,,,0.00,WUHU21623XXSP,2013-05-04 08:45:00,
2013-05-04 01:50:00,54.1,26.2,29.89,North,0,0.0,0.0,34,0.00,,,0.00,WUHU21623XXSP,2013-05-04 08:50:00,
2013-05-04 01:55:00,54.0,26.0,29.89,North,0,0.0,0.0,34,0.00,,,0.00,WUHU21623XXSP,2013-05-04 08:55:00,
2013-05-04 02:00:00,53.8,26.6,29.89,North,0,0.0,0.0,35,0.00,,,0.00,WUHU21623XXSP,2013-05-04 09:00:00,
2013-05-04 02:05:00,53.4,26.3,29.88,North,0,0.0,0.0,35,0.00,,,0.00,WUHU21623XXSP,2013-05-04 09:05:00,
2013-05-04 02:10:00,53.2,26.1,29.87,North,0,0.0,0.0,35,0.00,,,0.00,WUHU21623XXSP,2013-05-04 09:10:00,
2013-05-04 02:15:00,53.2,26.1,29.87,North,0,0.0,0.0,35,0.00,,,0.00,WUHU21623XXSP,2013-05-04 09:15:00,
2013-05-04 02:20:00,52.9,25.8,29.88,North,0,0.0,0.0,35,0.00,,,0.00,WUHU21623XXSP,2013-05-04 09:20:00,
2013-05-04 02:25:00,52.7,25.6,29.88,North,0,0.0,0.0,35,0.00,,,0.00,WUHU21623XXSP,2013-05-04 09:25:00,
2013-05-04 02:30:00,52.5,25.4,29.87,North,0,0.0,0.0,35,0.00,,,0.00,WUHU21623XXSP,2013-05-04 09:30:00,
2013-05-04 02:35:00,52.7,26.3,29.87,North,0,0.0,0.0,36,0.00,,,0.00,WUHU21623XXSP,2013-05-04 09:35:00,
2013-05-04 02:40:00,52.9,26.5,29.87,North,0,0.0,0.0,36,0.00,,,0.00,WUHU21623XXSP,2013-05-04 09:40:00,
2013-05-04 02:45:00,53.4,26.3,29.87,North,0,0.0,0.0,35,0.00,,,0.00,WUHU21623XXSP,2013-05-04 09:45:00,
2013-05-04 02:50:00,53.4,26.3,29.87,North,0,0.0,0.0,35,0.00,,,0.00,WUHU21623XXSP,2013-05-04 09:50:00,
2013-05-04 02:55:00,53.4,26.3,29.87,North,0,0.0,0.0,35,0.00,,,0.00,WUHU21623XXSP,2013-05-04 09:55:00,
2013-05-04 03:00:00,53.4,26.3,29.87,North,0,0.0,0.0,35,0.00,,,0.00,WUHU21623XXSP,2013-05-04 10:00:00,
2013-05-04 03:05:00,53.2,26.1,29.87,North,0,0.0,0.0,35,0.00,,,0.00,WUHU21623XXSP,2013-05-04 10:05:00,
2013-05-04 03:10:00,52.9,26.5,29.86,North,0,0.0,0.0,36,0.00,,,0.00,WUHU21623XXSP,2013-05-04 10:10:00,
2013-05-04 03:15:00,52.9,26.5,29.86,North,0,0.0,0.0,36,0.00,,,0.00,WUHU21623XXSP,2013-05-04 10:15:00,
2013-05-04 03:20:00,52.9,26.5,29.87,North,0,0.0,0.0,36,0.00,,,0.00,WUHU21623XXSP,2013-05-04 10:20:00,
2013-05-04 03:25:00,52.9,26.5,29.87,North,0,0.0,0.0,36,0.00,,,0.00,WUHU21623XXSP,2013-05-04 10:25:00,
2013-05-04 03:30:00,52.7,26.5,29.87,North,0,0.0,0.0,36,0.00,,,0.00,WUHU21623XXSP,2013-05-04 10:30:00,
2013-05-04 03:35:00,52.7,26.3,29.87,North,0,0.0,0.0,36,0.00,,,0.00,WUHU21623XXSP,2013-05-04 10:35:00,
2013-05-04 03:40:00,52.5,26.1,29.87,North,0,0.0,0.0,36,0.00,,,0.00,WUHU21623XXSP,2013-05-04 10:40:00,
2013-05-04 03:45:00,52.5,26.1,29.86,North,0,0.0,0.0,36,0.00,,,0.00,WUHU21623XXSP,2013-05-04 10:45:00,
2013-05-04 03:50:00,52.5,26.1,29.86,North,0,0.0,0.0,36,0.00,,,0.00,WUHU21623XXSP,2013-05-04 10:50:00,
2013-05-04 03:55:00,52.3,26.0,29.86,North,0,0.0,0.0,36,0.00,,,0.00,WUHU21623XXSP,2013-05-04 10:55:00,
2013-05-04 04:00:00,52.3,26.0,29.86,North,0,0.0,0.0,36,0.00,,,0.00,WUHU21623XXSP,2013-05-04 11:00:00,
2013-05-04 04:05:00,52.0,26.3,29.86,North,0,0.0,0.0,37,0.00,,,0.00,WUHU21623XXSP,2013-05-04 11:05:00,
2013-05-04 04:10:00,52.0,25.6,29.86,North,0,0.0,0.0,36,0.00,,,0.00,WUHU21623XXSP,2013-05-04 11:10:00,
2013-05-04 04:15:00,51.8,26.2,29.86,North,0,0.0,0.0,37,0.00,,,0.00,WUHU21623XXSP,2013-05-04 11:15:00,
2013-05-04 04:20:00,51.8,26.2,29.86,North,0,0.0,0.0,37,0.00,,,0.00,WUHU21623XXSP,2013-05-04 11:20:00,
2013-05-04 04:25:00,51.8,26.2,29.85,North,0,0.0,0.0,37,0.00,,,0.00,WUHU21623XXSP,2013-05-04 11:25:00,
2013-05-04 04:30:00,51.6,26.0,29.85,North,0,0.0,0.0,37,0.00,,,0.00,WUHU21623XXSP,2013-05-04 11:30:00,
2013-05-04 04:35:00,51.6,26.0,29.85,North,0,0.0,0.0,37,0.00,,,0.00,WUHU21623XXSP,2013-05-04 11:35:00,
2013-05-04 04:40:00,52.0,25.6,29.85,North,0,0.0,0.0,36,0.00,,,0.00,WUHU21623XXSP,2013-05-04 11:40:00,
2013-05-04 04:45:00,52.0,25.6,29.85,North,0,0.0,0.0,36,0.00,,,0.00,WUHU21623XXSP,2013-05-04 11:45:00,
2013-05-04 04:50:00,52.0,25.6,29.85,North,0,0.0,0.0,36,0.00,,,0.00,WUHU21623XXSP,2013-05-04 11:50:00,
2013-05-04 04:55:00,52.2,25.8,29.85,North,0,0.0,0.0,36,0.00,,,0.00,WUHU21623XXSP,2013-05-04 11:55:00,
2013-05-04 05:00:00,52.0,25.6,29.85,North,0,0.0,0.0,36,0.00,,,0.00,WUHU21623XXSP,2013-05-04 12:00:00,
2013-05-04 05:06:00,52.0,25.6,29.86,North,0,0.0,0.0,36,0.00,,,0.00,WUHU21623XXSP,2013-05-04 12:06:00,
2013-05-04 05:11:00,51.6,25.3,29.85,North,0,0.0,0.0,36,0.00,,,0.00,WUHU21623XXSP,2013-05-04 12:11:00,
2013-05-04 05:16:00,51.4,25.2,29.85,North,0,0.0,0.0,36,0.00,,,0.00,WUHU21623XXSP,2013-05-04 12:16:00,
2013-05-04 05:21:00,51.3,25.0,29.85,North,0,0.0,0.0,36,0.00,,,0.00,WUHU21623XXSP,2013-05-04 12:21:00,
2013-05-04 05:26:00,51.3,25.0,29.86,North,0,0.0,0.0,36,0.00,,,0.00,WUHU21623XXSP,2013-05-04 12:26:00,
2013-05-04 05:31:00,51.3,25.0,29.86,North,0,0.0,0.0,36,0.00,,,0.00,WUHU21623XXSP,2013-05-04 12:31:00,
2013-05-04 05:36:00,51.3,25.0,29.86,North,0,0.0,0.0,36,0.00,,,0.00,WUHU21623XXSP,2013-05-04 12:36:00,
2013-05-04 05:41:00,50.7,25.2,29.85,North,0,0.0,0.0,37,0.00,,,0.00,WUHU21623XXSP,2013-05-04 12:41:00,
2013-05-04 05:46:00,50.5,25.7,29.85,North,0,0.0,0.0,38,0.00,,,0.00,WUHU21623XXSP,2013-05-04 12:46:00,
2013-05-04 05:51:00,50.2,26.1,29.86,North,0,0.0,0.0,39,0.00,,,0.00,WUHU21623XXSP,2013-05-04 12:51:00,
2013-05-04 05:56:00,50.5,27.1,29.86,North,0,0.0,0.0,40,0.00,,,0.00,WUHU21623XXSP,2013-05-04 12:56:00,
2013-05-04 06:01:00,50.5,27.1,29.86,North,0,0.0,0.0,40,0.00,,,0.00,WUHU21623XXSP,2013-05-04 13:01:00,
2013-05-04 06:05:00,50.5,26.9,29.86,North,0,0.0,0.0,40,0.00,,,0.00,WUHU21623XXSP,2013-05-04 13:05:00,
2013-05-04 06:06:00,50.5,27.1,29.86,North,0,0.0,0.0,40,0.00,,,0.00,WUHU21623XXSP,2013-05-04 13:06:00,
2013-05-04 06:11:00,50.2,27.3,29.86,North,0,0.0,0.0,41,0.00,,,0.00,WUHU21623XXSP,2013-05-04 13:11:00,
2013-05-04 06:16:00,49.8,27.0,29.86,North,0,0.0,0.0,41,0.00,,,0.00,WUHU21623XXSP,2013-05-04 13:16:00,
2013-05-04 06:21:00,49.6,26.8,29.87,North,0,0.0,0.0,41,0.00,,,0.00,WUHU21623XXSP,2013-05-04 13:21:00,
2013-05-04 06:26:00,49.8,27.0,29.87,North,0,0.0,0.0,41,0.00,,,0.00,WUHU21623XXSP,2013-05-04 13:26:00,
2013-05-04 06:31:00,50.0,26.6,29.87,North,0,0.0,0.0,40,0.00,,,0.00,WUHU21623XXSP,2013-05-04 13:31:00,
2013-05-04 06:36:00,50.7,27.2,29.87,North,0,0.0,0.0,40,0.00,,,0.00,WUHU21623XXSP,2013-05-04 13:36:00,
2013-05-04 06:41:00,50.9,26.7,29.87,North,0,0.0,0.0,39,0.00,,,0.00,WUHU21623XXSP,2013-05-04 13:41:00,
2013-05-04 06:46:00,51.1,26.9,29.87,North,0,0.0,0.0,39,0.00,,,0.00,WUHU21623XXSP,2013-05-04 13:46:00,
2013-05-04 06:51:00,51.8,27.5,29.87,North,0,0.0,0.0,39,0.00,,,0.00,WUHU21623XXSP,2013-05-04 13:51:00,
2013-05-04 06:56:00,52.2,27.9,29.87,North,0,0.0,0.0,39,0.00,,,0.00,WUHU21623XXSP,2013-05-04 13:56:00,
2013-05-04 07:01:00,52.5,28.2,29.87,North,0,0.0,0.0,39,0.00,,,0.00,WUHU21623XXSP,2013-05-04 14:01:00,
2013-05-04 07:05:00,52.7,28.2,29.88,North,0,0.0,0.0,39,0.00,,,0.00,WUHU21623XXSP,2013-05-04 14:05:00,
2013-05-04 07:06:00,52.7,29.0,29.88,North,0,0.0,0.0,40,0.00,,,0.00,WUHU21623XXSP,2013-05-04 14:06:00,
2013-05-04 07:11:00,52.5,28.9,29.88,North,0,0.0,0.0,40,0.00,,,0.00,WUHU21623XXSP,2013-05-04 14:11:00,
2013-05-04 07:16:00,52.3,28.7,29.88,North,0,0.0,0.0,40,0.00,,,0.00,WUHU21623XXSP,2013-05-04 14:16:00,
2013-05-04 07:21:00,52.9,29.8,29.88,North,0,0.0,0.0,41,0.00,,,0.00,WUHU21623XXSP,2013-05-04 14:21:00,
2013-05-04 07:26:00,53.2,30.1,29.88,North,0,0.0,0.0,41,0.00,,,0.00,WUHU21623XXSP,2013-05-04 14:26:00,
2013-05-04 07:31:00,53.4,30.8,29.88,North,0,0.0,0.0,42,0.00,,,0.00,WUHU21623XXSP,2013-05-04 14:31:00,
2013-05-04 07:36:00,54.1,32.0,29.88,North,0,0.0,0.0,43,0.00,,,0.00,WUHU21623XXSP,2013-05-04 14:36:00,
2013-05-04 07:41:00,54.7,32.5,29.88,North,0,0.0,0.0,43,0.00,,,0.00,WUHU21623XXSP,2013-05-04 14:41:00,
2013-05-04 07:46:00,55.2,33.0,29.88,North,0,0.0,0.0,43,0.00,,,0.00,WUHU21623XXSP,2013-05-04 14:46:00,
2013-05-04 07:51:00,56.1,33.2,29.88,North,0,0.0,0.0,42,0.00,,,0.00,WUHU21623XXSP,2013-05-04 14:51:00,
2013-05-04 07:56:00,57.0,32.9,29.88,North,0,0.0,0.0,40,0.00,,,0.00,WUHU21623XXSP,2013-05-04 14:56:00,
2013-05-04 08:01:00,58.3,31.2,29.88,North,0,0.0,0.0,36,0.00,,,0.00,WUHU21623XXSP,2013-05-04 15:01:00,
2013-05-04 08:05:00,59.7,31.1,29.88,North,0,0.0,0.0,34,0.00,,,0.00,WUHU21623XXSP,2013-05-04 15:05:00,
2013-05-04 08:06:00,60.6,29.0,29.88,North,0,0.0,0.0,30,0.00,,,0.00,WUHU21623XXSP,2013-05-04 15:06:00,
2013-05-04 08:11:00,61.9,30.1,29.88,North,0,0.0,0.0,30,0.00,,,0.00,WUHU21623XXSP,2013-05-04 15:11:00,
2013-05-04 08:16:00,62.4,30.6,29.88,North,0,0.0,0.0,30,0.00,,,0.00,WUHU21623XXSP,2013-05-04 15:16:00,
2013-05-04 08:21:00,63.3,28.3,29.88,North,0,0.0,0.0,29,0.00,,,0.00,WUHU21623XXSP,2013-05-04 15:21:00,
2013-05-04 08:26:00,63.7,26.8,29.88,North,0,0.0,0.0,25,0.00,,,0.00,WUHU21623XXSP,2013-05-04 15:26:00,
2013-05-04 08:31:00,65.1,26.0,29.88,North,0,0.0,0.0,23,0.00,,,0.00,WUHU21623XXSP,2013-05-04 15:31:00,
2013-05-04 08:36:00,66.4,24.1,29.88,North,0,0.0,0.0,20,0.00,,,0.00,WUHU21623XXSP,2013-05-04 15:36:00,
2013-05-04 08:41:00,66.9,27.5,29.89,North,0,0.0,0.0,23,0.00,,,0.00,WUHU21623XXSP,2013-05-04 15:41:00,
2013-05-04 08:46:00,66.6,27.2,29.88,North,0,0.0,0.0,23,0.00,,,0.00,WUHU21623XXSP,2013-05-04 15:46:00,
2013-05-04 08:51:00,67.8,27.3,29.88,North,0,0.0,0.0,22,0.00,,,0.00,WUHU21623XXSP,2013-05-04 15:51:00,
2013-05-04 08:56:00,67.8,27.3,29.88,North,0,0.0,0.0,22,0.00,,,0.00,WUHU21623XXSP,2013-05-04 15:56:00,
2013-05-04 09:01:00,68.0,28.5,29.88,North,0,0.0,0.0,23,0.00,,,0.00,WUHU21623XXSP,2013-05-04 16:01:00,
2013-05-04 09:05:00,68.5,26.9,29.88,North,0,0.0,0.0,21,0.00,,,0.00,WUHU21623XXSP,2013-05-04 16:05:00,
2013-05-04 09:06:00,69.1,24.8,29.88,North,0,0.0,0.0,19,0.00,,,0.00,WUHU21623XXSP,2013-05-04 16:06:00,
2013-05-04 09:11:00,69.1,24.8,29.88,North,0,0.0,0.0,19,0.00,,,0.00,WUHU21623XXSP,2013-05-04 16:11:00,
2013-05-04 09:16:00,69.3,23.3,29.88,North,0,0.0,0.0,18,0.00,,,0.00,WUHU21623XXSP,2013-05-04 16:16:00,
2013-05-04 09:21:00,69.6,23.6,29.88,North,0,0.0,0.0,18,0.00,,,0.00,WUHU21623XXSP,2013-05-04 16:21:00,
2013-05-04 09:26:00,69.6,23.6,29.88,North,0,0.0,0.0,18,0.00,,,0.00,WUHU21623XXSP,2013-05-04 16:26:00,
2013-05-04 09:31:00,70.2,25.6,29.88,North,0,0.0,0.0,19,0.00,,,0.00,WUHU21623XXSP,2013-05-04 16:31:00,
2013-05-04 09:36:00,70.3,22.5,29.88,North,0,0.0,0.0,17,0.00,,,0.00,WUHU21623XXSP,2013-05-04 16:36:00,
2013-05-04 09:41:00,70.5,24.3,29.88,North,0,0.0,0.0,18,0.00,,,0.00,WUHU21623XXSP,2013-05-04 16:41:00,
2013-05-04 09:46:00,70.7,24.4,29.88,North,0,0.0,0.0,18,0.00,,,0.00,WUHU21623XXSP,2013-05-04 16:46:00,
2013-05-04 09:51:00,71.2,28.1,29.88,North,0,0.0,0.0,20,0.00,,,0.00,WUHU21623XXSP,2013-05-04 16:51:00,
2013-05-04 09:56:00,71.4,25.0,29.88,North,0,0.0,0.0,18,0.00,,,0.00,WUHU21623XXSP,2013-05-04 16:56:00,
2013-05-04 10:01:00,71.6,25.2,29.88,North,0,0.0,0.0,18,0.00,,,0.00,WUHU21623XXSP,2013-05-04 17:01:00,
2013-05-04 10:05:00,71.4,25.6,29.88,North,0,0.0,0.0,18,0.00,,,0.00,WUHU21623XXSP,2013-05-04 17:05:00,
2013-05-04 10:06:00,71.4,26.6,29.88,North,0,0.0,0.0,19,0.00,,,0.00,WUHU21623XXSP,2013-05-04 17:06:00,
2013-05-04 10:11:00,71.8,25.3,29.88,North,0,0.0,0.0,18,0.00,,,0.00,WUHU21623XXSP,2013-05-04 17:11:00,
2013-05-04 10:16:00,72.5,24.3,29.88,North,0,0.0,0.0,17,0.00,,,0.00,WUHU21623XXSP,2013-05-04 17:16:00,
2013-05-04 10:21:00,72.9,23.0,29.88,North,0,0.0,0.0,16,0.00,,,0.00,WUHU21623XXSP,2013-05-04 17:21:00,
2013-05-04 10:26:00,73.2,24.9,29.88,North,0,0.0,0.0,17,0.00,,,0.00,WUHU21623XXSP,2013-05-04 17:26:00,
2013-05-04 10:31:00,74.1,25.6,29.87,North,0,0.0,0.0,17,0.00,,,0.00,WUHU21623XXSP,2013-05-04 17:31:00,
2013-05-04 10:36:00,75.4,23.3,29.88,North,0,0.0,0.0,15,0.00,,,0.00,WUHU21623XXSP,2013-05-04 17:36:00,
2013-05-04 10:41:00,75.9,23.8,29.87,North,0,0.0,0.0,15,0.00,,,0.00,WUHU21623XXSP,2013-05-04 17:41:00,
2013-05-04 10:46:00,75.9,27.1,29.87,North,0,0.0,0.0,17,0.00,,,0.00,WUHU21623XXSP,2013-05-04 17:46:00,
2013-05-04 10:51:00,77.2,23.1,29.87,North,0,0.0,0.0,14,0.00,,,0.00,WUHU21623XXSP,2013-05-04 17:51:00,
2013-05-04 10:56:00,77.0,26.3,29.87,North,0,0.0,0.0,16,0.00,,,0.00,WUHU21623XXSP,2013-05-04 17:56:00,
2013-05-04 11:01:00,78.4,25.7,29.87,North,0,0.0,0.0,15,0.00,,,0.00,WUHU21623XXSP,2013-05-04 18:01:00,
2013-05-04 11:05:00,78.6,32.9,29.87,North,0,0.0,0.0,19,0.00,,,0.00,WUHU21623XXSP,2013-05-04 18:05:00,
2013-05-04 11:06:00,78.6,25.8,29.87,North,0,0.0,0.0,15,0.00,,,0.00,WUHU21623XXSP,2013-05-04 18:06:00,
2013-05-04 11:11:00,78.6,25.8,29.87,North,0,0.0,0.0,15,0.00,,,0.00,WUHU21623XXSP,2013-05-04 18:11:00,
2013-05-04 11:16:00,78.4,29.0,29.87,North,0,0.0,0.0,17,0.00,,,0.00,WUHU21623XXSP,2013-05-04 18:16:00,
2013-05-04 11:21:00,78.6,27.5,29.87,North,0,0.0,0.0,16,0.00,,,0.00,WUHU21623XXSP,2013-05-04 18:21:00,
2013-05-04 11:26:00,79.3,28.1,29.87,North,0,0.0,0.0,16,0.00,,,0.00,WUHU21623XXSP,2013-05-04 18:26:00,
2013-05-04 11:31:00,79.3,26.4,29.86,North,0,0.0,0.0,15,0.00,,,0.00,WUHU21623XXSP,2013-05-04 18:31:00,
2013-05-04 11:36:00,79.5,29.9,29.86,North,0,0.0,0.0,17,0.00,,,0.00,WUHU21623XXSP,2013-05-04 18:36:00,
2013-05-04 11:41:00,79.7,25.1,29.86,North,0,0.0,0.0,14,0.00,,,0.00,WUHU21623XXSP,2013-05-04 18:41:00,
2013-05-04 11:46:00,79.9,25.2,29.87,North,0,0.0,0.0,14,0.00,,,0.00,WUHU21623XXSP,2013-05-04 18:46:00,
2013-05-04 11:51:00,79.5,24.9,29.86,North,0,0.0,0.0,14,0.00,,,0.00,WUHU21623XXSP,2013-05-04 18:51:00,
2013-05-04 11:56:00,79.9,24.9,29.86,North,0,0.0,0.0,15,0.00,,,0.00,WUHU21623XXSP,2013-05-04 18:56:00,
2013-05-04 12:01:00,80.4,27.3,29.86,North,0,0.0,0.0,15,0.00,,,0.00,WUHU21623XXSP,2013-05-04 19:01:00,
2013-05-04 12:05:00,80.4,31.6,29.86,North,0,0.0,0.0,17,0.00,,,0.00,WUHU21623XXSP,2013-05-04 19:05:00,
2013-05-04 12:06:00,80.8,27.6,29.85,North,0,0.0,0.0,15,0.00,,,0.00,WUHU21623XXSP,2013-05-04 19:06:00,
2013-05-04 12:11:00,81.3,26.4,29.85,North,0,0.0,0.0,14,0.00,,,0.00,WUHU21623XXSP,2013-05-04 19:11:00,
2013-05-04 12:16:00,80.8,27.6,29.85,North,0,0.0,0.0,15,0.00,,,0.00,WUHU21623XXSP,2013-05-04 19:16:00,
2013-05-04 12:21:00,81.3,29.8,29.85,North,0,0.0,0.0,16,0.00,,,0.00,WUHU21623XXSP,2013-05-04 19:21:00,
2013-05-04 12:26:00,81.3,29.8,29.85,North,0,0.0,0.0,16,0.00,,,0.00,WUHU21623XXSP,2013-05-04 19:26:00,
2013-05-04 12:31:00,81.5,26.5,29.84,North,0,0.0,0.0,14,0.00,,,0.00,WUHU21623XXSP,2013-05-04 19:31:00,
2013-05-04 12:36:00,81.3,23.0,29.84,North,0,0.0,0.0,12,0.00,,,0.00,WUHU21623XXSP,2013-05-04 19:36:00,
2013-05-04 12:41:00,81.1,31.3,29.83,North,0,0.0,0.0,17,0.00,,,0.00,WUHU21623XXSP,2013-05-04 19:41:00,
2013-05-04 12:46:00,80.8,29.3,29.83,North,0,0.0,0.0,16,0.00,,,0.00,WUHU21623XXSP,2013-05-04 19:46:00,
2013-05-04 12:51:00,81.5,26.5,29.83,North,0,0.0,0.0,14,0.00,,,0.00,WUHU21623XXSP,2013-05-04 19:51:00,
2013-05-04 12:56:00,81.9,23.4,29.83,North,0,0.0,0.0,12,0.00,,,0.00,WUHU21623XXSP,2013-05-04 19:56:00,
2013-05-04 13:01:00,81.3,29.8,29.83,North,0,0.0,0.0,16,0.00,,,0.00,WUHU21623XXSP,2013-05-04 20:01:00,
2013-05-04 13:05:00,82.0,28.0,29.83,North,0,0.0,0.0,14,0.00,,,0.00,WUHU21623XXSP,2013-05-04 20:05:00,
2013-05-04 13:06:00,82.8,24.1,29.83,North,0,0.0,0.0,12,0.00,,,0.00,WUHU21623XXSP,2013-05-04 20:06:00,
2013-05-04 13:11:00,82.8,29.2,29.83,North,0,0.0,0.0,15,0.00,,,0.00,WUHU21623XXSP,2013-05-04 20:11:00,
2013-05-04 13:16:00,83.1,31.2,29.82,North,0,0.0,0.0,16,0.00,,,0.00,WUHU21623XXSP,2013-05-04 20:16:00,
2013-05-04 13:21:00,83.8,26.6,29.82,North,0,0.0,0.0,13,0.00,,,0.00,WUHU21623XXSP,2013-05-04 20:21:00,
2013-05-04 13:26:00,83.3,27.9,29.82,North,0,0.0,0.0,14,0.00,,,0.00,WUHU21623XXSP,2013-05-04 20:26:00,
2013-05-04 13:31:00,83.3,24.5,29.82,North,0,0.0,0.0,12,0.00,,,0.00,WUHU21623XXSP,2013-05-04 20:31:00,
2013-05-04 13:36:00,83.8,26.6,29.82,North,0,0.0,0.0,13,0.00,,,0.00,WUHU21623XXSP,2013-05-04 20:36:00,
2013-05-04 13:41:00,84.0,25.0,29.82,North,0,0.0,0.0,12,0.00,,,0.00,WUHU21623XXSP,2013-05-04 20:41:00,
2013-05-04 13:46:00,83.8,23.2,29.82,North,0,0.0,0.0,11,0.00,,,0.00,WUHU21623XXSP,2013-05-04 20:46:00,
2013-05-04 13:51:00,83.8,26.6,29.82,North,0,0.0,0.0,13,0.00,,,0.00,WUHU21623XXSP,2013-05-04 20:51:00,
2013-05-04 13:56:00,83.7,21.4,29.82,North,0,0.0,0.0,10,0.00,,,0.00,WUHU21623XXSP,2013-05-04 20:56:00,
2013-05-04 14:01:00,83.7,26.5,29.82,North,0,0.0,0.0,13,0.00,,,0.00,WUHU21623XXSP,2013-05-04 21:01:00,
2013-05-04 14:05:00,83.5,23.2,29.82,North,0,0.0,0.0,11,0.00,,,0.00,WUHU21623XXSP,2013-05-04 21:05:00,
2013-05-04 14:06:00,83.1,22.7,29.82,North,0,0.0,0.0,11,0.00,,,0.00,WUHU21623XXSP,2013-05-04 21:06:00,
2013-05-04 14:11:00,83.1,26.1,29.81,North,0,0.0,0.0,13,0.00,,,0.00,WUHU21623XXSP,2013-05-04 21:11:00,
2013-05-04 14:16:00,83.8,26.6,29.81,North,0,0.0,0.0,13,0.00,,,0.00,WUHU21623XXSP,2013-05-04 21:16:00,
2013-05-04 14:21:00,83.7,23.2,29.82,North,0,0.0,0.0,13,0.00,,,0.00,WUHU21623XXSP,2013-05-04 21:21:00,
2013-05-04 14:26:00,82.6,24.0,29.81,North,0,0.0,0.0,12,0.00,,,0.00,WUHU21623XXSP,2013-05-04 21:26:00,
2013-05-04 14:31:00,82.8,25.8,29.81,North,0,0.0,0.0,13,0.00,,,0.00,WUHU21623XXSP,2013-05-04 21:31:00,
2013-05-04 14:36:00,83.1,29.5,29.81,North,0,0.0,0.0,15,0.00,,,0.00,WUHU21623XXSP,2013-05-04 21:36:00,
2013-05-04 14:41:00,83.3,27.9,29.81,North,0,0.0,0.0,14,0.00,,,0.00,WUHU21623XXSP,2013-05-04 21:41:00,
2013-05-04 14:46:00,82.9,27.6,29.81,North,0,0.0,0.0,14,0.00,,,0.00,WUHU21623XXSP,2013-05-04 21:46:00,
2013-05-04 14:51:00,82.9,34.4,29.81,North,0,0.0,0.0,18,0.00,,,0.00,WUHU21623XXSP,2013-05-04 21:51:00,
2013-05-04 14:56:00,83.3,38.1,29.81,North,0,0.0,0.0,20,0.00,,,0.00,WUHU21623XXSP,2013-05-04 21:56:00,
2013-05-04 15:01:00,82.9,37.8,29.81,North,0,0.0,0.0,20,0.00,,,0.00,WUHU21623XXSP,2013-05-04 22:01:00,
2013-05-04 15:05:00,82.8,40.0,29.81,North,0,0.0,0.0,22,0.00,,,0.00,WUHU21623XXSP,2013-05-04 22:05:00,
2013-05-04 15:06:00,82.8,40.8,29.81,North,0,0.0,0.0,23,0.00,,,0.00,WUHU21623XXSP,2013-05-04 22:06:00,
2013-05-04 15:11:00,82.2,40.4,29.80,North,0,0.0,0.0,23,0.00,,,0.00,WUHU21623XXSP,2013-05-04 22:11:00,
2013-05-04 15:16:00,81.7,41.0,29.81,North,0,0.0,0.0,24,0.00,,,0.00,WUHU21623XXSP,2013-05-04 22:16:00,
2013-05-04 15:21:00,82.2,41.4,29.81,North,0,0.0,0.0,24,0.00,,,0.00,WUHU21623XXSP,2013-05-04 22:21:00,
2013-05-04 15:26:00,81.7,44.1,29.81,North,0,0.0,0.0,27,0.00,,,0.00,WUHU21623XXSP,2013-05-04 22:26:00,
2013-05-04 15:31:00,81.3,44.9,29.81,North,0,0.0,0.0,28,0.00,,,0.00,WUHU21623XXSP,2013-05-04 22:31:00,
2013-05-04 15:36:00,80.8,37.1,29.81,North,0,0.0,0.0,21,0.00,,,0.00,WUHU21623XXSP,2013-05-04 22:36:00,
2013-05-04 15:41:00,81.0,44.6,29.81,North,0,0.0,0.0,28,0.00,,,0.00,WUHU21623XXSP,2013-05-04 22:41:00,
2013-05-04 15:46:00,81.1,36.4,29.81,North,0,0.0,0.0,20,0.00,,,0.00,WUHU21623XXSP,2013-05-04 22:46:00,
2013-05-04 15:51:00,81.3,36.5,29.81,North,0,0.0,0.0,20,0.00,,,0.00,WUHU21623XXSP,2013-05-04 22:51:00,
2013-05-04 15:56:00,81.1,38.5,29.81,North,0,0.0,0.0,22,0.00,,,0.00,WUHU21623XXSP,2013-05-04 22:56:00,
2013-05-04 16:01:00,80.2,36.7,29.81,North,0,0.0,0.0,21,0.00,,,0.00,WUHU21623XXSP,2013-05-04 23:01:00,
2013-05-04 16:05:00,80.1,37.8,29.81,North,0,0.0,0.0,22,0.00,,,0.00,WUHU21623XXSP,2013-05-04 23:05:00,
2013-05-04 16:06:00,80.1,37.6,29.81,North,0,0.0,0.0,22,0.00,,,0.00,WUHU21623XXSP,2013-05-04 23:06:00,
2013-05-04 16:11:00,80.1,45.9,29.81,North,0,0.0,0.0,30,0.00,,,0.00,WUHU21623XXSP,2013-05-04 23:11:00,
2013-05-04 16:16:00,79.0,36.6,29.81,North,0,0.0,0.0,22,0.00,,,0.00,WUHU21623XXSP,2013-05-04 23:16:00,
2013-05-04 16:21:00,79.5,36.0,29.81,North,0,0.0,0.0,21,0.00,,,0.00,WUHU21623XXSP,2013-05-04 23:21:00,
2013-05-04 16:26:00,79.5,37.1,29.82,North,0,0.0,0.0,22,0.00,,,0.00,WUHU21623XXSP,2013-05-04 23:26:00,
2013-05-04 16:31:00,79.3,35.9,29.82,North,0,0.0,0.0,21,0.00,,,0.00,WUHU21623XXSP,2013-05-04 23:31:00,
2013-05-04 16:36:00,79.5,37.1,29.82,North,0,0.0,0.0,22,0.00,,,0.00,WUHU21623XXSP,2013-05-04 23:36:00,
2013-05-04 16:41:00,78.6,35.2,29.82,North,0,0.0,0.0,21,0.00,,,0.00,WUHU21623XXSP,2013-05-04 23:41:00,
2013-05-04 16:46:00,78.1,34.1,29.82,North,0,0.0,0.0,20,0.00,,,0.00,WUHU21623XXSP,2013-05-04 23:46:00,
2013-05-04 16:51:00,77.5,33.3,29.82,North,0,0.0,0.0,20,0.00,,,0.00,WUHU21623XXSP,2013-05-04 23:51:00,
2013-05-04 16:56:00,75.9,32.0,29.82,North,0,0.0,0.0,20,0.00,,,0.00,WUHU21623XXSP,2013-05-04 23:56:00,
2013-05-04 17:01:00,75.4,31.6,29.82,North,0,0.0,0.0,20,0.00,,,0.00,WUHU21623XXSP,2013-05-05 00:01:00,
2013-05-04 17:05:00,75.2,32.5,29.83,North,0,0.0,0.0,21,0.00,,,0.00,WUHU21623XXSP,2013-05-05 00:05:00,
2013-05-04 17:06:00,75.0,29.7,29.82,North,0,0.0,0.0,19,0.00,,,0.00,WUHU21623XXSP,2013-05-05 00:06:00,
2013-05-04 17:11:00,74.5,31.9,29.83,North,0,0.0,0.0,21,0.00,,,0.00,WUHU21623XXSP,2013-05-05 00:11:00,
2013-05-04 17:16:00,75.4,32.6,29.82,North,0,0.0,0.0,21,0.00,,,0.00,WUHU21623XXSP,2013-05-05 00:16:00,
2013-05-04 17:21:00,75.4,33.7,29.83,North,0,0.0,0.0,23,0.00,,,0.00,WUHU21623XXSP,2013-05-05 00:21:00,
2013-05-04 17:26:00,75.0,35.4,29.83,North,0,0.0,0.0,24,0.00,,,0.00,WUHU21623XXSP,2013-05-05 00:26:00,
2013-05-04 17:31:00,74.8,36.3,29.83,North,0,0.0,0.0,25,0.00,,,0.00,WUHU21623XXSP,2013-05-05 00:31:00,
2013-05-04 17:36:00,74.5,39.0,29.83,North,0,0.0,0.0,28,0.00,,,0.00,WUHU21623XXSP,2013-05-05 00:36:00,
2013-05-04 17:41:00,74.3,39.9,29.83,North,0,0.0,0.0,29,0.00,,,0.00,WUHU21623XXSP,2013-05-05 00:41:00,
2013-05-04 17:46:00,73.9,38.6,29.82,North,0,0.0,0.0,28,0.00,,,0.00,WUHU21623XXSP,2013-05-05 00:46:00,
2013-05-04 17:51:00,73.9,37.5,29.82,North,0,0.0,0.0,27,0.00,,,0.00,WUHU21623XXSP,2013-05-05 00:51:00,
2013-05-04 17:56:00,73.0,39.8,29.83,North,0,0.0,0.0,30,0.00,,,0.00,WUHU21623XXSP,2013-05-05 00:56:00,
2013-05-04 18:01:00,72.7,37.5,29.83,North,0,0.0,0.0,28,0.00,,,0.00,WUHU21623XXSP,2013-05-05 01:01:00,
2013-05-04 18:05:00,72.5,37.4,29.83,North,0,0.0,0.0,28,0.00,,,0.00,WUHU21623XXSP,2013-05-05 01:05:00,
2013-05-04 18:06:00,72.3,37.2,29.83,North,0,0.0,0.0,28,0.00,,,0.00,WUHU21623XXSP,2013-05-05 01:06:00,
2013-05-04 18:11:00,71.4,38.5,29.83,North,0,0.0,0.0,30,0.00,,,0.00,WUHU21623XXSP,2013-05-05 01:11:00,
2013-05-04 18:16:00,70.9,39.5,29.83,North,0,0.0,0.0,32,0.00,,,0.00,WUHU21623XXSP,2013-05-05 01:16:00,
2013-05-04 18:21:00,70.7,38.6,29.83,North,0,0.0,0.0,31,0.00,,,0.00,WUHU21623XXSP,2013-05-05 01:21:00,
2013-05-04 18:26:00,70.5,38.4,29.83,North,0,0.0,0.0,31,0.00,,,0.00,WUHU21623XXSP,2013-05-05 01:26:00,
2013-05-04 18:31:00,70.3,38.3,29.83,North,0,0.0,0.0,31,0.00,,,0.00,WUHU21623XXSP,2013-05-05 01:31:00,
2013-05-04 18:36:00,70.2,38.8,29.83,North,0,0.0,0.0,32,0.00,,,0.00,WUHU21623XXSP,2013-05-05 01:36:00,
2013-05-04 18:41:00,69.6,39.8,29.83,North,0,0.0,0.0,34,0.00,,,0.00,WUHU21623XXSP,2013-05-05 01:41:00,
2013-05-04 18:46:00,69.3,41.7,29.84,North,0,0.0,0.0,37,0.00,,,0.00,WUHU21623XXSP,2013-05-05 01:46:00,
2013-05-04 18:51:00,68.7,42.0,29.83,North,0,0.0,0.0,38,0.00,,,0.00,WUHU21623XXSP,2013-05-05 01:51:00,
2013-05-04 18:56:00,67.6,43.7,29.84,North,0,0.0,0.0,42,0.00,,,0.00,WUHU21623XXSP,2013-05-05 01:56:00,
2013-05-04 19:01:00,66.9,44.2,29.84,North,0,0.0,0.0,44,0.00,,,0.00,WUHU21623XXSP,2013-05-05 02:01:00,
2013-05-04 19:05:00,66.6,44.5,29.85,North,0,0.0,0.0,45,0.00,,,0.00,WUHU21623XXSP,2013-05-05 02:05:00,
2013-05-04 19:06:00,66.2,44.7,29.84,North,0,0.0,0.0,46,0.00,,,0.00,WUHU21623XXSP,2013-05-05 02:06:00,
2013-05-04 19:11:00,65.1,44.9,29.85,North,0,0.0,0.0,48,0.00,,,0.00,WUHU21623XXSP,2013-05-05 02:11:00,
2013-05-04 19:16:00,64.6,44.3,29.85,North,0,0.0,0.0,48,0.00,,,0.00,WUHU21623XXSP,2013-05-05 02:16:00,
2013-05-04 19:21:00,64.2,44.6,29.85,North,0,0.0,0.0,49,0.00,,,0.00,WUHU21623XXSP,2013-05-05 02:21:00,
2013-05-04 19:26:00,63.3,44.3,29.85,North,0,0.0,0.0,50,0.00,,,0.00,WUHU21623XXSP,2013-05-05 02:26:00,
2013-05-04 19:31:00,63.0,44.5,29.86,North,0,0.0,0.0,51,0.00,,,0.00,WUHU21623XXSP,2013-05-05 02:31:00,
2013-05-04 19:36:00,62.4,44.0,29.86,North,0,0.0,0.0,51,0.00,,,0.00,WUHU21623XXSP,2013-05-05 02:36:00,
2013-05-04 19:41:00,62.2,44.3,29.86,North,0,0.0,0.0,52,0.00,,,0.00,WUHU21623XXSP,2013-05-05 02:41:00,
2013-05-04 19:46:00,61.7,44.3,29.86,North,0,0.0,0.0,53,0.00,,,0.00,WUHU21623XXSP,2013-05-05 02:46:00,
2013-05-04 19:51:00,61.5,44.2,29.86,North,0,0.0,0.0,53,0.00,,,0.00,WUHU21623XXSP,2013-05-05 02:51:00,
2013-05-04 19:56:00,61.0,43.7,29.87,North,0,0.0,0.0,53,0.00,,,0.00,WUHU21623XXSP,2013-05-05 02:56:00,
2013-05-04 20:01:00,60.6,44.3,29.87,North,0,0.0,0.0,55,0.00,,,0.00,WUHU21623XXSP,2013-05-05 03:01:00,
2013-05-04 20:05:00,60.4,44.2,29.87,North,0,0.0,0.0,55,0.00,,,0.00,WUHU21623XXSP,2013-05-05 03:05:00,
2013-05-04 20:06:00,60.3,44.0,29.87,North,0,0.0,0.0,55,0.00,,,0.00,WUHU21623XXSP,2013-05-05 03:06:00,
2013-05-04 20:11:00,59.5,43.8,29.87,North,0,0.0,0.0,56,0.00,,,0.00,WUHU21623XXSP,2013-05-05 03:11:00,
2013-05-04 20:16:00,59.5,44.7,29.88,North,0,0.0,0.0,58,0.00,,,0.00,WUHU21623XXSP,2013-05-05 03:16:00,
2013-05-04 20:21:00,59.5,44.7,29.88,North,0,0.0,0.0,59,0.00,,,0.00,WUHU21623XXSP,2013-05-05 03:21:00,
2013-05-04 20:26:00,59.2,44.8,29.88,North,0,0.0,0.0,59,0.00,,,0.00,WUHU21623XXSP,2013-05-05 03:26:00,
2013-05-04 20:31:00,58.8,44.5,29.88,North,0,0.0,0.0,59,0.00,,,0.00,WUHU21623XXSP,2013-05-05 03:31:00,
2013-05-04 20:36:00,58.5,44.7,29.88,North,0,0.0,0.0,60,0.00,,,0.00,WUHU21623XXSP,2013-05-05 03:36:00,
2013-05-04 20:41:00,57.9,44.6,29.88,North,0,0.0,0.0,61,0.00,,,0.00,WUHU21623XXSP,2013-05-05 03:41:00,
2013-05-04 20:46:00,57.7,44.8,29.88,North,0,0.0,0.0,62,0.00,,,0.00,WUHU21623XXSP,2013-05-05 03:46:00,
2013-05-04 20:51:00,57.7,45.2,29.88,North,0,0.0,0.0,63,0.00,,,0.00,WUHU21623XXSP,2013-05-05 03:51:00,
2013-05-04 20:57:00,57.4,44.9,29.88,North,0,0.0,0.0,63,0.00,,,0.00,WUHU21623XXSP,2013-05-05 03:57:00,
2013-05-04 21:02:00,57.0,44.5,29.88,North,0,0.0,0.0,63,0.00,,,0.00,WUHU21623XXSP,2013-05-05 04:02:00,
2013-05-04 21:05:00,56.8,44.5,29.88,North,0,0.0,0.0,63,0.00,,,0.00,WUHU21623XXSP,2013-05-05 04:05:00,
2013-05-04 21:07:00,56.7,44.2,29.89,North,0,0.0,0.0,63,0.00,,,0.00,WUHU21623XXSP,2013-05-05 04:07:00,
2013-05-04 21:12:00,56.1,44.1,29.89,North,0,0.0,0.0,64,0.00,,,0.00,WUHU21623XXSP,2013-05-05 04:12:00,
2013-05-04 21:17:00,55.8,43.7,29.89,North,0,0.0,0.0,64,0.00,,,0.00,WUHU21623XXSP,2013-05-05 04:17:00,
2013-05-04 21:22:00,55.6,44.0,29.89,North,0,0.0,0.0,65,0.00,,,0.00,WUHU21623XXSP,2013-05-05 04:22:00,
2013-05-04 21:27:00,55.4,43.8,29.89,North,0,0.0,0.0,65,0.00,,,0.00,WUHU21623XXSP,2013-05-05 04:27:00,
2013-05-04 21:32:00,55.2,43.6,29.89,North,0,0.0,0.0,65,0.00,,,0.00,WUHU21623XXSP,2013-05-05 04:32:00,
2013-05-04 21:37:00,54.9,43.7,29.89,North,0,0.0,0.0,66,0.00,,,0.00,WUHU21623XXSP,2013-05-05 04:37:00,
2013-05-04 21:42:00,54.7,43.5,29.89,North,0,0.0,0.0,66,0.00,,,0.00,WUHU21623XXSP,2013-05-05 04:42:00,
2013-05-04 21:47:00,54.5,43.7,29.89,North,0,0.0,0.0,67,0.00,,,0.00,WUHU21623XXSP,2013-05-05 04:47:00,
2013-05-04 21:52:00,54.3,44.0,29.90,North,0,0.0,0.0,68,0.00,,,0.00,WUHU21623XXSP,2013-05-05 04:52:00,
2013-05-04 21:57:00,54.3,44.0,29.90,North,0,0.0,0.0,68,0.00,,,0.00,WUHU21623XXSP,2013-05-05 04:57:00,
2013-05-04 22:02:00,54.3,44.0,29.90,North,0,0.0,0.0,68,0.00,,,0.00,WUHU21623XXSP,2013-05-05 05:02:00,
2013-05-04 22:05:00,54.3,44.5,29.91,North,0,0.0,0.0,69,0.00,,,0.00,WUHU21623XXSP,2013-05-05 05:05:00,
2013-05-04 22:07:00,54.3,44.4,29.90,North,0,0.0,0.0,69,0.00,,,0.00,WUHU21623XXSP,2013-05-05 05:07:00,
2013-05-04 22:12:00,54.0,44.0,29.91,North,0,0.0,0.0,69,0.00,,,0.00,WUHU21623XXSP,2013-05-05 05:12:00,
2013-05-04 22:17:00,54.0,44.4,29.91,North,0,0.0,0.0,70,0.00,,,0.00,WUHU21623XXSP,2013-05-05 05:17:00,
2013-05-04 22:22:00,53.8,44.2,29.91,North,0,0.0,0.0,70,0.00,,,0.00,WUHU21623XXSP,2013-05-05 05:22:00,
2013-05-04 22:27:00,53.8,44.6,29.91,North,0,0.0,0.0,71,0.00,,,0.00,WUHU21623XXSP,2013-05-05 05:27:00,
2013-05-04 22:32:00,53.6,44.6,29.91,North,0,0.0,0.0,71,0.00,,,0.00,WUHU21623XXSP,2013-05-05 05:32:00,
2013-05-04 22:37:00,53.4,44.2,29.91,North,0,0.0,0.0,71,0.00,,,0.00,WUHU21623XXSP,2013-05-05 05:37:00,
2013-05-04 22:42:00,53.4,44.2,29.91,North,0,0.0,0.0,71,0.00,,,0.00,WUHU21623XXSP,2013-05-05 05:42:00,
2013-05-04 22:47:00,53.4,44.6,29.91,North,0,0.0,0.0,72,0.00,,,0.00,WUHU21623XXSP,2013-05-05 05:47:00,
2013-05-04 22:52:00,53.2,44.4,29.91,North,0,0.0,0.0,72,0.00,,,0.00,WUHU21623XXSP,2013-05-05 05:52:00,
2013-05-04 22:57:00,53.4,44.6,29.91,North,0,0.0,0.0,72,0.00,,,0.00,WUHU21623XXSP,2013-05-05 05:57:00,
2013-05-04 23:02:00,53.4,44.6,29.91,North,0,0.0,0.0,72,0.00,,,0.00,WUHU21623XXSP,2013-05-05 06:02:00,
2013-05-04 23:05:00,53.4,44.7,29.91,North,0,0.0,0.0,72,0.00,,,0.00,WUHU21623XXSP,2013-05-05 06:05:00,
2013-05-04 23:07:00,53.8,45.3,29.91,North,0,0.0,0.0,73,0.00,,,0.00,WUHU21623XXSP,2013-05-05 06:07:00,
2013-05-04 23:12:00,54.0,45.5,29.91,North,0,0.0,0.0,73,0.00,,,0.00,WUHU21623XXSP,2013-05-05 06:12:00,
2013-05-04 23:17:00,54.1,45.3,29.91,North,0,0.0,0.0,72,0.00,,,0.00,WUHU21623XXSP,2013-05-05 06:17:00,
2013-05-04 23:22:00,54.1,45.3,29.91,North,0,0.0,0.0,72,0.00,,,0.00,WUHU21623XXSP,2013-05-05 06:22:00,
2013-05-04 23:27:00,54.1,45.3,29.91,North,0,0.0,0.0,72,0.00,,,0.00,WUHU21623XXSP,2013-05-05 06:27:00,
2013-05-04 23:32:00,54.0,45.1,29.92,North,0,0.0,0.0,72,0.00,,,0.00,WUHU21623XXSP,2013-05-05 06:32:00,
2013-05-04 23:37:00,53.8,44.9,29.91,North,0,0.0,0.0,72,0.00,,,0.00,WUHU21623XXSP,2013-05-05 06:37:00,
2013-05-04 23:42:00,53.8,45.3,29.91,North,0,0.0,0.0,73,0.00,,,0.00,WUHU21623XXSP,2013-05-05 06:42:00,
2013-05-04 23:47:00,53.8,45.3,29.91,North,0,0.0,0.0,73,0.00,,,0.00,WUHU21623XXSP,2013-05-05 06:47:00,
2013-05-04 23:52:00,53.8,45.3,29.91,North,0,0.0,0.0,73,0.00,,,0.00,WUHU21623XXSP,2013-05-05 06:52:00,
2013-05-04 23:57:00,53.8,45.3,29.91,North,0,0.0,0.0,73,0.00,,,0.00,WUHU21623XXSP,2013-05-05 06:57:00,